Find Starlink 32484

NORAD ID: 62160 Int'l Des: 2024-224 Owner: SPXS Country: US Constellation: starlink operational
LEOCIRCULAR

現在のビュー

3D地球を読み込み中...

About Starlink 32484

Starlink 32484 (NORAD 62160) is a starlink constellation satellite (v2 mini) launched Nov 30, 2024 by SPXS of US. It operates in LEO, CIRCULAR orbit with a mass of 730.00 kg.

Starlink 32484について

説明を読み込み中...

次回通過

Passes for default location (London). Set your location on the main map for personalized predictions.

高度履歴

Loading altitude history...

軌道要素

1 62160U 24224X 26177.93019741 .00013083 00000-0 48421-3 0 9993
2 62160 43.0000 261.4501 0001357 266.1251 93.9445 15.27571525 89182
Epoch: Jun 26, 2026 • Age: 14 hours

現在のステータス

高度 492.3 km
速度 7.62 km/s
衛星直下点 -35.18°S, 32.7°E
打ち上げ日 Nov 30, 2024
運用期間 1.5 years
タイプ internet

技術仕様

分類 Payload
質量 730.00 kg
乾燥質量 700.00 kg
総質量 730.00 kg
長さ 0.30 m
直径 4.10 m
スパン 29.00 m
形状 Box + pan
製造者 SPXS
バスタイプ Starlink V2M
フェーズステータス In Orbit
所有者/国 SPXS/US

Most Searched